Regional Weather Roundup
Issued by NWS

Home | Current Version | Previous Version | Text Only | Print | Product List | Glossary On
Versions: 1 2 3 4 5 6 7 8 9 10 11 12 13 14 15 16 17 18 19 20 21 22 23 24 25 26 27 28 29 30 31 32 33 34 35 36 37 38 39 40 41 42 43 44 45 46 47 48 49 50
000
ASUS45 KSLC 171010
RWRUT

UTAH REGIONAL WEATHER ROUNDUP
NATIONAL WEATHER SERVICE SALT LAKE CITY UT
400 AM MDT SAT AUG 17 2019

UTZ001>011-023>025-171100-

NORTHERN UTAH

CITY           SKY/WX    TMP DP  RH WIND       PRES   REMARKS
BRIGHAM CITY   CLEAR     62  40  45 N3        29.91S
HILL AFB       NOT AVBL
LOGAN          CLEAR     54  44  69 CALM      29.94S
OGDEN          CLEAR     62  42  47 S7        29.91R
SALT LAKE CITY MOCLDY    70  46  42 CALM      29.90R
TOOELE VALLEY  MOCLDY    61  50  67 S6        29.93R
WENDOVER       CLEAR     72  40  31 NW3       29.91F
HEBER CITY       N/A     50  41  71 CALM      30.00S
WEST JORDAN    MOCLDY    67  44  42 CALM      29.94R

$$

UTZ011>015-024>027-171100-

CENTRAL/NORTHEAST UTAH

CITY           SKY/WX    TMP DP  RH WIND       PRES   REMARKS
PROVO AIRPORT  PTCLDY    64  49  57 SE5       29.93S
MOAB/CANYONLAN PTCLDY    68  22  17 CALM      29.87F
DELTA          CLEAR     68  21  17 S12       29.93S
PRICE          CLEAR     61  32  33 E5        30.00S
ROOSEVELT      PTCLDY    55  41  58 SW6       29.98S
VERNAL         PTCLDY    65  33  30 N6        29.95F

$$

UTZ013>016-019>022-027-171100-

SOUTHERN UTAH

CITY           SKY/WX    TMP DP  RH WIND       PRES   REMARKS
BRYCE CANYON   CLEAR     46  21  37 N7        30.21F
CEDAR CITY     LGT RAIN  67  18  15 SW7       30.03S
MILFORD        CLEAR     59  19  21 S9        29.97S
ST GEORGE      MOSUNNY   79  23  12 E3        29.85R
KANAB          CLEAR     57  25  28 N6        30.06F
BLANDING         N/A     64  19  18 CALM      30.11R

$$

REGIONAL REPORTS     COLORADO/ARIZONA

CITY           SKY/WX    TMP DP  RH WIND       PRES   REMARKS
CRAIG, CO      CLEAR     52  42  69 NE6       30.05F
GRAND JUNCTION CLEAR     71  32  23 NE7       29.91S
RIFLE, CO      PTCLDY    58  38  47 NE9       30.01S
MONTROSE, CO   CLEAR     65  30  27 SE12      30.03S
CORTEZ, CO     CLEAR     49  31  49 NE6       30.07S
COLORADO CITY    N/A     55  27  33 CALM      30.05S
PAGE, AZ       CLEAR     77  21  12 CALM      29.94S
GRAND CANYON   PTCLDY    45  20  36 CALM      30.18F
KINGMAN, AZ    CLEAR     78  20  11 SE13      29.92S
FLAGSTAFF, AZ  CLEAR     48  34  58 CALM      30.22F

$$

REGIONAL REPORTS    NEVADA/IDAHO/WYOMING

CITY           SKY/WX    TMP DP  RH WIND       PRES   REMARKS
LAS VEGAS, NV  CLEAR     90  34  13 S8        29.73F
ELY, NY        CLEAR     51  27  39 S10       30.08S
ELKO, NV       CLEAR     54  36  50 CALM      30.00S
POCATELLO, ID  CLEAR     61  24  24 W10G22    29.91S
BURLEY, ID     CLEAR     55  38  52 SW10      29.90S
EVANSTON, WY   CLEAR     55  33  43 S6        30.09F
ROCK SPRINGS,  CLEAR     53  29  39 S5        30.06F
KEMMERER, WY   CLEAR     46  30  53 CALM      30.10S

$$



USA.gov is the U.S. government's official web portal to all federal, state and local government web resources and services.